This is the latest recevied weather packets stored in our database for station/object WA1TYB-13. If no packets are shown the sender has not sent any weather packets the latest 10 day(s).
| Time | Temp. | Humidity | Pressure | Rain* | Wind** | Luminosity | Snow |
|---|---|---|---|---|---|---|---|
| 1778058692 | -2.78° C | 77% | 1021.6 hPa | 0 mm | - | 0 W/m² | - |
| 1778058390 | -2.78° C | 77% | 1021.4 hPa | 0 mm | - | 0 W/m² | - |
| 1778058086 | -2.22° C | 74% | 1021.4 hPa | 0 mm | - | 0 W/m² | - |
| 1778057783 | -2.22° C | 74% | 1021.4 hPa | 0 mm | - | 0 W/m² | - |
| 1778057479 | -1.67° C | 73% | 1021.4 hPa | 0 mm | - | 0 W/m² | - |
| 1778057176 | -1.67° C | 73% | 1021.6 hPa | 0 mm | - | 0 W/m² | - |
| 1778056873 | -1.67° C | 74% | 1021.4 hPa | 0 mm | - | 0 W/m² | - |
| 1778056570 | -1.67° C | 74% | 1021.4 hPa | 0 mm | - | 0 W/m² | - |
| 1778056268 | -1.67° C | 73% | 1021.5 hPa | 0 mm | - | 0 W/m² | - |
| 1778055964 | -1.67° C | 72% | 1021.5 hPa | 0 mm | - | 0 W/m² | - |
| 1778055660 | -1.11° C | 71% | 1021.5 hPa | 0 mm | - | 0 W/m² | - |
| 1778055358 | -1.11° C | 72% | 1021.6 hPa | 0 mm | - | 0 W/m² | - |
| 1778055055 | -1.67° C | 74% | 1021.5 hPa | 0 mm | - | 0 W/m² | - |
| 1778054753 | -2.22° C | 75% | 1021.5 hPa | 0 mm | - | 0 W/m² | - |
| 1778054449 | -2.22° C | 74% | 1021.6 hPa | 0 mm | - | 0 W/m² | - |
| 1778054147 | -2.22° C | 73% | 1021.7 hPa | 0 mm | - | 0 W/m² | - |
| 1778053844 | -1.67° C | 72% | 1021.6 hPa | 0 mm | - | 0 W/m² | - |
| 1778053542 | -1.11° C | 71% | 1021.8 hPa | 0 mm | - | 0 W/m² | - |
| 1778053238 | -1.11° C | 71% | 1021.6 hPa | 0 mm | - | 0 W/m² | - |
| 1778052936 | -1.11° C | 72% | 1021.7 hPa | 0 mm | - | 0 W/m² | - |
| 1778052633 | -1.67° C | 72% | 1021.8 hPa | 0 mm | - | 0 W/m² | - |
| 1778052331 | -1.11° C | 71% | 1021.7 hPa | 0 mm | - | 0 W/m² | - |
| 1778052028 | -1.11° C | 71% | 1022 hPa | 0 mm | - | 0 W/m² | - |
| 1778051726 | -1.11° C | 70% | 1021.7 hPa | 0 mm | - | 0 W/m² | - |
| 1778051423 | -0.56° C | 71% | 1022 hPa | 0 mm | - | 0 W/m² | - |
* Rain latest hour (hover to see other rain measurements)
** Current wind speed in m/s (hover to see current wind gust speed)